Location: Observatoire
(46.1952°N, 5.3391°E)
Time: 15:08:27
(UTC+01:00)

Vanguard 2 Rocket - Pass Details

Date: 16 February 2026
Orbit: 553 x 3286 km, 32.9° (Epoch: 13 March)

Event Time Altitude Azimuth Distance (km) Brightness Sun altitude
Rises 19:06:53 0° 269° (W) 5,429 13.0 -11.2°
Reaches altitude 10° 19:12:43 10° 251° (WSW) 3,797 11.4 -12.2°
Maximum altitude 19:17:39 16° 219° (SW) 2,822 10.0 -13.0°
Drops below altitude 10° 19:21:30 10° 185° (S) 2,794 9.5 -13.7°
Sets 19:24:48 0° 162° (SSE) 3,381 9.7 -14.3°
